STARLINK-32527 (62319 NORAD) Tracking and Keplerian Element Data

This shows tracking and keplerian element data for the satellite.

Feedback or suggestion? Click here.




ElementValue
Catalog62319
NameSTARLINK-32527
Epoch Orbit825
Epoch Day34.79903295
Epoch Year2025
RAAN250.8714
Inclination53.1578
Eccentricity0.0001018
Argument of Perigee67.146
Mean Anonmoly292.9652
Mean Motion15.39621638
Decay Rate4.1E-07
L11 62319U 24239U 25034.79903295 .00000041 00000+0 11004-4 0 9993
L22 62319 53.1578 250.8714 0001018 67.1460 292.9652 15.39621638 8257



Live tracking and technical data element details for STARLINK-32527 (NORAD 62319). STARLINK-32527 can be tracked NOW for your location showing map with azimuth and elevation plus other details from your city location.







IsCatalogInMostPopularTable: catalog: 62319, numindb: 22
Update: records affected: 1



GetName: 62319 STARLINK-32527

Hit Count: updated at: Mon, 19 May 2025 03:31:53 GMT